Regional Weather Roundup
Issued by NWS

Home | Current Version | Previous Version | Graphics & Text | Print | Product List | Glossary Off
Versions: 1 2 3 4 5 6 7 8 9 10 11 12 13 14 15 16 17 18 19 20 21 22 23 24 25 26 27 28 29 30 31 32 33 34 35 36 37 38 39 40 41 42 43 44 45 46 47 48 49 50

000
ASUS43 KDTX 270210
RWRMI
MICHIGAN HOURLY REGIONAL WEATHER ROUNDUP
NATIONAL WEATHER SERVICE DETROIT/PONTIAC MI
900 PM EST FRI DEC 26 2014

NOTE: "FAIR" INDICATES FEW OR NO CLOUDS BELOW 12,000 FEET WITH NO
SIGNIFICANT WEATHER AND/OR OBSTRUCTION TO VISIBILITY.

MIZ047>049-052>055-059>063-066>070-074>076-081>083-270300-
SOUTHEAST LOWER MICHIGAN

CITY           SKY/WX    TMP DP  RH WIND       PRES   REMARKS
ADRIAN         PTCLDY    39  37  92 SW9       30.11F
ALMA           CLOUDY    34  34 100 CALM      30.07F
ANN ARBOR      PTCLDY    39  36  89 S5        30.10S
BAD AXE        PTCLDY    29  29 100 CALM      30.09S FOG
DETROIT CITY   MOCLDY    44  37  76 S9        30.11F
DETROIT        MOCLDY    41  37  86 S9        30.12S
FLINT          PTCLDY    41  35  79 S6        30.09S
GROSSE ILE     MOCLDY    39  36  87 S7        30.11F
HILLSDALE      CLOUDY    42  40  94 S8        30.07F
HOWELL         PTCLDY    38  37  94 S7        30.08S

CITY           SKY/WX    TMP DP  RH WIND       PRES   REMARKS
JACKSON        CLOUDY    43  38  82 S9        30.07F
LAMBERTVILLE   MOCLDY    43  37  81 S5        30.13S
LANSING        CLOUDY    41  36  82 S6        30.08S
LAPEER         NOT AVBL
MASON          MOCLDY    38  34  86 CALM      30.08S
MONROE         CLOUDY    39  37  93 S3        30.11S
MT. CLEMENS    MOCLDY    36  36 100 S9        30.08F
PONTIAC        MOCLDY    41  37  86 S7        30.08S
PORT HOPE        N/A     32  30  92 CALM      30.08R
PORT HURON     MOCLDY    37  36  93 CALM      30.11S
TRI CITIES     CLOUDY    36  33  89 SE6       30.07F
YPSILANTI      PTCLDY    41  35  79 S8        30.11F
$$
MIZ043>046-050>051-056>058-064>065-071>073-077>080-270300-
SOUTHWEST LOWER MICHIGAN

CITY           SKY/WX    TMP DP  RH WIND       PRES   REMARKS
BATTLE CREEK   CLOUDY    44  38  79 S7        30.07S
BENTON HARBOR  CLOUDY    47  41  80 SW6       30.06R
BIG RAPIDS     CLOUDY    33  33 100 CALM      30.04S
COLDWATER      CLOUDY    44  38  82 S6        30.07F
HOLLAND        CLOUDY    42  37  82 SE3       30.06S
GRAND RAPIDS   CLOUDY    38  34  85 CALM      30.06S
KALAMAZOO      CLOUDY    45  39  79 S6        30.07S
MARSHALL       CLOUDY    42  38  86 S5        30.07R
MUSKEGON       PTCLDY    40  37  89 SE3       30.05S
$$
MIZ016>042-270300-
NORTHERN LOWER MICHIGAN

CITY           SKY/WX    TMP DP  RH WIND       PRES   REMARKS
ALPENA         CLOUDY    37  33  85 S5        30.07F
BEAVER ISLAND  CLOUDY    35  34  99 NE3       30.05S FOG
BELLAIRE       CLOUDY    39  35  84 CALM      30.05S
CADILLAC       PTCLDY    35  34  94 CALM      30.02S
CHARLEVOIX     CLOUDY    38  36  92 CALM      30.07S
FRANKFORT      CLOUDY    38  37  94 CALM      30.03F
GAYLORD        CLOUDY    35  33  92 S6        30.03S
GRAYLING       CLOUDY    35  35  98 CALM      30.05S
HARBOR SPRINGS CLOUDY    38  34  87 CALM      30.04S
HOUGHTON LAKE  MOCLDY    35  33  92 S3        30.04F
MANISTEE       PTCLDY    34  28  80 E3        30.04F
OSCODA         CLOUDY    33  32  96 CALM      30.07S
PELLSTON       CLOUDY    35  34  96 CALM      30.05S
TRAVERSE CITY  CLOUDY    41  35  79 CALM      30.03S
$$
MIZ007>008-015-270300-
EASTERN UPPER MICHIGAN

CITY           SKY/WX    TMP DP  RH WIND       PRES   REMARKS
KINROSS        CLOUDY    34  34 100 CALM      30.05S VSB 3/4
MACKINAC ISLAN CLOUDY    36  36 100 NE3       30.04S FOG
NEWBERRY       FOG       32  32 100 N6        30.04S VSB 3/4
S. S. MARIE    CLOUDY    34  32  92 CALM      30.05R FOG
$$
MIZ004>006-011>014-085-270300-
CENTRAL UPPER MICHIGAN

CITY           SKY/WX    TMP DP  RH WIND       PRES   REMARKS
MANISTIQUE     CLOUDY    33  33 100 CALM      30.04S FOG
ESCANABA       CLOUDY    34  30  86 N3        30.04F
MENOMINEE      CLOUDY    34  30  86 E3        30.04R
SAWYER-GWINN   CLOUDY    32  30  93 NE3       30.02S
$$
MIZ001>003-009>011-084-270300-
WESTERN UPPER MICHIGAN

CITY           SKY/WX    TMP DP  RH WIND       PRES   REMARKS
IRON MOUNTAIN  CLOUDY    31  30  96 CALM      30.01F
HOUGHTON       CLOUDY    31  26  82 N3        30.04S
COPPER HARBOR    N/A     35  26  69 NE9       30.05F
IRONWOOD       CLOUDY    28  28 100 CALM      30.03S
$$

ABBREVIATIONS USED IN REMARKS
   TC - TEMPERATURE IN CELSIUS
  WCI - WIND CHILL INDEX
   HX - HEAT INDEX
  VSB - VISIBILITY




USA.gov is the U.S. government's official web portal to all federal, state and local government web resources and services.